Voltar ao catálogo

YAOGAN-30 K

AtivoMilitarVLEO
NORAD 43170·PAYLOAD·🇨🇳 China

Lançado Jan 25, 2018 de Xichang Satellite Launch Center

Loading…

Próximas Passagens (próximas 24 horas)

TLE

AtualizadoSource: Space-Track

Época: Sep 14, 2026, 14:06 UTC

1 43170U 18011B   26257.58795009  .00001956  00000-0  14459-3 0  9998
2 43170  34.9971 325.9269 0003077  29.3490 330.7391 15.03010198471602

Acompanhe YAOGAN-30 K em tempo real com AllMySat

Download on the App Store